Погода в Алашехире

Турция     38°21′16″N   28°31′02″E
темп.,
°C
ветер,
м/с
пор.,
м/с
влажн.,
%
обл.,
%
осадки,
мм/ч
давл.,
гПа
погр.,
м
23 июня, ср
ср2300:00+20зсз22574 0.0 101412
03:00+19з11630 0.0 101411
06:00+18сз11690 0.0 101411
09:00+23ссв23510 0.0 1015641
12:00+27ссв34360 0.0 10151551
15:00+29с46330 0.0 10141951
18:00+29ссз79320 0.0 10132239
21:00+24ссз34460 0.0 101445
24 июня, чт
чт2400:00+22зсз22550 0.0 101516
03:00+20ссз22590 0.0 101517
06:00+19ссз22660 0.0 101518
09:00+25с35490 0.0 10151035
12:00+28с57380 0.0 10141828
15:00+31с67270 0.0 10122597
18:00+30с782712 0.0 10122942
21:00+24ссз59420 0.0 1014213
25 июня, пт
пт2500:00+22ссз22490 0.0 101415
03:00+20ссз22590 0.0 101414
06:00+18с11670 0.0 101411
09:00+24ссв22510 0.0 1014519
12:00+28с45340 0.0 10131565
15:00+31с46270 0.0 10122172
18:00+31сз36260 0.0 10112521
21:00+25ссз47400 0.0 1012136
26 июня, сб
сб2600:00+22ссз22510 0.0 101316
03:00+21с01580 0.0 101311
06:00+19ссз11630 0.0 101311
09:00+25ссв23460 0.0 1013532
12:00+30ссв33300 0.0 10121479
15:00+33с56230 0.0 10112214
18:00+33ссз46230 0.0 10093039
21:00+27ссз59370 0.0 1010184
27 июня, вс
вс2700:00+25ссз22430 0.0 101215
03:00+23сз11490 0.0 101211
06:00+21ссз11550 0.0 101211
09:00+27ссв22420 0.0 1013555
12:00+32ссв34230 0.0 10121837
15:00+34с44180 0.0 10102953
18:00+34ссз44180 0.0 10093223
21:00+26сз45450 0.0 101177